FENGYUN 1C DEB, 30771

Orbit data source: Space-Track

FENGYUN 1C DEB, 30771 is space debris in SSO originally from a launch on Mon, 10 May 1999 UTC launched from the Taiyaun Space Center, China (TSC). Fengyun 1C debris stems from the Chinese weather satellite Fengyun-1C, which was intentionally destroyed by a Chinese anti-satellite missile in 2007. This event dramatically increased the amount of space debris, with thousands of trackable fragments posing hazards to satellites and human spaceflight. The Fengyun 1C debris cloud has become a focal point in discussions about space sustainability and the need for international regulations to prevent the creation of new debris.

Loading next visibility...
Identifier
30771, 1999-025AUH
Orbit
SSO
Country
Flag of CNCN / PRC
Related business
Manufacturer
Unknown
Mission
Spacecraft
Bus & Motor
Unknown
Mass
Unknown
Launch date (UTC)
1999-05-10 (27 years ago)
Launch vehicle
Unknown
Launch site
Taiyaun Space Center, China (TSC)
Object type
Payload
Rocket body
Debris
Shape & HBR
Unknown shape, 0.1 m
Radar Cross Section
Small (<0.1 m²)

Expand to show TLE details & history
Last TLE update: 8 hours ago

TLE from 8 hours ago
0 FENGYUN 1C DEB
1 30771U 99025AUH 26071.49707739  .00008815  00000-0  25328-2 0  9999
2 30771  98.9106  55.8921 0024479  31.5522 328.7129 14.44902849983598
Epoch: 2026-03-12T11:55Z
TLE epoch observation values (Epoch: 2026-03-12T11:55:47.486Z)
Latitude
-0.00009°
Longitude
66.79814°
Altitude
730.4 km
Speed
7.498 km/s
True Right ascension
03h 43m 34s
True Declination
0° 00' 00"
Sunlit
Object was in daylight at epoch
Visualization orbit readout
Latitude
Unknown
Longitude
Unknown
Altitude
Unknown
Speed
Unknown
Apparent Right ascension
Unknown
Apparent Declination
Unknown
Sunlit
N/A
Visualization observer readout
Local Sidereal Time
00:23:11
Azimuth
Unknown
Elevation
Unknown
Doppler factor
Unknown
Orbital elements
Apogee altitude
756.904 km
Perigee altitude
722.057 km
Semi-major axis
7,117.617 km
Eccentricity
0.00245
Inclination
98.9106°
RAAN
55.8921°
Arg. of periapsis
31.5522°
True anomaly
328.56684°
Mean anomaly
328.7129°
Eccentric anomaly
328.63991°
Mean motion
3.61444 °/min
Orbital period
99.6 mins
BSTAR
0.0025328
Loading maneuver chart data...
Computing Atmospheric mass density...
Loading historical data...
Loading historical data...
Loading historical data...
Loading historical data...
Loading historical data...
Loading historical data...
Loading historical data...

Documentation

Showing up to 5 results
|